When you browse on this site, cookies collect data to enhance your experience and personalize the content and advertising you see.
Visit our Privacy Policy to learn more. By continuing to use the site, you agree to this use of cookies and data.
  • în România
  • Lista ţărilor
  • Pe 7 zile
  • Temperatura apei
  • Hartă satelitară
  • Meteo pe hartă
  • Widget-uri
  • user-avatar
    Intrare

    Meteo pe oră la Darwin

    Astăzi, 21 Aprilie, Duminică

    Timp Temperatura Precipitaţii Vânt Presiune Umiditate
    00:00 +27°C° 0 mm 1 m/s 757 mmHg 76%
    01:00 +27°C° 0 mm 1 m/s 757 mmHg 77%
    02:00 +27°C° 0 mm 2 m/s 757 mmHg 79%
    03:00 +27°C° 0 mm 2 m/s 757 mmHg 80%
    04:00 +27°C° 0 mm 2 m/s 757 mmHg 80%
    05:00 +26°C° 0 mm 2 m/s 757 mmHg 80%
    06:00 +26°C° 0 mm 2 m/s 758 mmHg 80%
    07:00 +28°C° 0 mm 2 m/s 758 mmHg 75%
    08:00 +29°C° 0 mm 2 m/s 758 mmHg 70%
    09:00 +31°C° 0 mm 2 m/s 758 mmHg 64%
    10:00 +34°C° 0 mm 2 m/s 758 mmHg 58%
    11:00 +35°C° 0 mm 2 m/s 758 mmHg 51%
    12:00 +35°C° 0 mm 1 m/s 758 mmHg 45%
    13:00 +35°C° 0 mm 1 m/s 757 mmHg 44%
    14:00 +35°C° 0 mm 1 m/s 756 mmHg 44%
    15:00 +35°C° 0 mm 1 m/s 756 mmHg 43%
    16:00 +35°C° 0 mm 2 m/s 756 mmHg 47%
    17:00 +34°C° 0 mm 2 m/s 756 mmHg 51%
    18:00 +33°C° 0 mm 3 m/s 756 mmHg 56%
    19:00 +31°C° 0.2 mm 3 m/s 756 mmHg 61%
    20:00 +30°C° 0.2 mm 3 m/s 757 mmHg 66%
    21:00 +29°C° 0.2 mm 3 m/s 757 mmHg 71%
    22:00 +29°C° 0.4 mm 3 m/s 757 mmHg 71%
    23:00 +28°C° 0.4 mm 2 m/s 757 mmHg 70%

    Mâine, 22 Aprilie, Luni

    Timp Temperatura Precipitaţii Vânt Presiune Umiditate
    00:00 +28°C° 0.4 mm 2 m/s 757 mmHg 70%
    01:00 +28°C° 0.1 mm 2 m/s 757 mmHg 70%
    02:00 +27°C° 0.1 mm 2 m/s 757 mmHg 70%
    03:00 +27°C° 0.1 mm 2 m/s 757 mmHg 70%
    04:00 +27°C° 0 mm 2 m/s 757 mmHg 72%
    05:00 +27°C° 0 mm 3 m/s 757 mmHg 75%
    06:00 +27°C° 0 mm 4 m/s 757 mmHg 77%
    07:00 +28°C° 0 mm 4 m/s 757 mmHg 71%
    08:00 +30°C° 0 mm 4 m/s 758 mmHg 65%
    09:00 +32°C° 0 mm 4 m/s 758 mmHg 60%
    10:00 +34°C° 0 mm 4 m/s 758 mmHg 52%
    11:00 +35°C° 0 mm 5 m/s 757 mmHg 45%
    12:00 +37°C° 0 mm 5 m/s 757 mmHg 37%
    13:00 +37°C° 0 mm 5 m/s 756 mmHg 37%
    14:00 +37°C° 0 mm 4 m/s 756 mmHg 37%
    15:00 +38°C° 0 mm 4 m/s 755 mmHg 36%
    16:00 +36°C° 0 mm 3 m/s 755 mmHg 42%
    17:00 +35°C° 0 mm 3 m/s 755 mmHg 47%
    18:00 +33°C° 0 mm 3 m/s 756 mmHg 53%
    19:00 +31°C° 0 mm 2 m/s 756 mmHg 55%
    20:00 +30°C° 0 mm 2 m/s 757 mmHg 57%
    21:00 +30°C° 0 mm 2 m/s 757 mmHg 59%
    22:00 +29°C° 0.1 mm 2 m/s 757 mmHg 61%
    23:00 +29°C° 0.1 mm 3 m/s 757 mmHg 63%

    Poimâine, 23 Aprilie, Marţi

    Timp Temperatura Precipitaţii Vânt Presiune Umiditate
    00:00 +29°C° 0.1 mm 3 m/s 758 mmHg 65%
    01:00 +28°C° 0.1 mm 3 m/s 757 mmHg 67%
    02:00 +28°C° 0.1 mm 3 m/s 757 mmHg 68%
    03:00 +28°C° 0.1 mm 3 m/s 757 mmHg 70%
    04:00 +27°C° 0 mm 3 m/s 757 mmHg 70%
    05:00 +27°C° 0 mm 3 m/s 757 mmHg 71%
    06:00 +26°C° 0 mm 3 m/s 757 mmHg 71%
    07:00 +28°C° 0 mm 3 m/s 758 mmHg 66%
    08:00 +29°C° 0 mm 4 m/s 758 mmHg 62%
    09:00 +30°C° 0 mm 4 m/s 759 mmHg 57%
    10:00 +33°C° 0 mm 4 m/s 758 mmHg 49%
    11:00 +35°C° 0 mm 5 m/s 758 mmHg 42%
    12:00 +37°C° 0 mm 5 m/s 758 mmHg 34%
    13:00 +37°C° 0 mm 5 m/s 757 mmHg 34%
    14:00 +38°C° 0 mm 4 m/s 756 mmHg 35%
    15:00 +38°C° 0 mm 4 m/s 756 mmHg 36%
    16:00 +36°C° 0 mm 3 m/s 756 mmHg 41%
    17:00 +35°C° 0 mm 3 m/s 756 mmHg 47%
    18:00 +32°C° 0 mm 2 m/s 756 mmHg 53%
    19:00 +31°C° 0 mm 2 m/s 756 mmHg 54%
    20:00 +31°C° 0 mm 1 m/s 757 mmHg 55%
    21:00 +30°C° 0 mm 1 m/s 758 mmHg 56%
    22:00 +30°C° 0 mm 2 m/s 758 mmHg 58%
    23:00 +30°C° 0 mm 3 m/s 758 mmHg 60%

    24 Aprilie, Miercuri

    Timp Temperatura Precipitaţii Vânt Presiune Umiditate
    00:00 +29°C° 0 mm 4 m/s 758 mmHg 61%
    01:00 +29°C° 0 mm 4 m/s 758 mmHg 63%
    02:00 +28°C° 0 mm 4 m/s 757 mmHg 64%
    03:00 +28°C° 0 mm 4 m/s 757 mmHg 65%
    04:00 +27°C° 0 mm 4 m/s 757 mmHg 66%
    05:00 +27°C° 0 mm 4 m/s 757 mmHg 67%
    06:00 +27°C° 0 mm 4 m/s 758 mmHg 68%
    07:00 +28°C° 0 mm 5 m/s 758 mmHg 63%
    08:00 +30°C° 0 mm 6 m/s 759 mmHg 57%
    09:00 +33°C° 0 mm 6 m/s 759 mmHg 52%
    10:00 +34°C° 0 mm 6 m/s 758 mmHg 48%
    11:00 +36°C° 0 mm 5 m/s 758 mmHg 44%
    12:00 +37°C° 0 mm 5 m/s 757 mmHg 40%
    13:00 +38°C° 0 mm 4 m/s 757 mmHg 39%
    14:00 +38°C° 0 mm 4 m/s 756 mmHg 39%
    15:00 +38°C° 0 mm 3 m/s 755 mmHg 38%
    16:00 +37°C° 0 mm 3 m/s 755 mmHg 44%
    17:00 +35°C° 0 mm 3 m/s 755 mmHg 51%
    18:00 +34°C° 0 mm 3 m/s 756 mmHg 57%
    19:00 +32°C° 0 mm 2 m/s 756 mmHg 59%
    20:00 +32°C° 0 mm 1 m/s 757 mmHg 61%
    21:00 +31°C° 0 mm 1 m/s 758 mmHg 63%
    22:00 +31°C° 0.5 mm 2 m/s 758 mmHg 67%
    23:00 +30°C° 0.5 mm 3 m/s 758 mmHg 70%

    25 Aprilie, Joi

    Timp Temperatura Precipitaţii Vânt Presiune Umiditate
    00:00 +29°C° 0.5 mm 3 m/s 757 mmHg 74%
    01:00 +29°C° 0.1 mm 4 m/s 757 mmHg 75%
    02:00 +28°C° 0.1 mm 4 m/s 757 mmHg 76%
    03:00 +28°C° 0.1 mm 4 m/s 756 mmHg 77%
    04:00 +27°C° 0 mm 5 m/s 756 mmHg 77%
    05:00 +27°C° 0 mm 5 m/s 757 mmHg 76%
    06:00 +27°C° 0 mm 5 m/s 757 mmHg 76%
    07:00 +28°C° 0 mm 5 m/s 757 mmHg 69%
    08:00 +30°C° 0 mm 5 m/s 757 mmHg 63%
    09:00 +32°C° 0 mm 6 m/s 758 mmHg 57%
    10:00 +34°C° 0 mm 5 m/s 757 mmHg 51%
    11:00 +36°C° 0 mm 5 m/s 757 mmHg 45%
    12:00 +37°C° 0 mm 5 m/s 756 mmHg 39%
    13:00 +39°C° 0 mm 5 m/s 756 mmHg 39%
    14:00 +38°C° 0 mm 4 m/s 755 mmHg 39%
    15:00 +38°C° 0 mm 4 m/s 754 mmHg 38%
    16:00 +37°C° 0 mm 4 m/s 755 mmHg 44%
    17:00 +36°C° 0 mm 3 m/s 755 mmHg 50%
    18:00 +34°C° 0 mm 3 m/s 755 mmHg 56%
    19:00 +34°C° 0 mm 3 m/s 756 mmHg 57%
    20:00 +32°C° 0 mm 2 m/s 757 mmHg 59%
    21:00 +32°C° 0 mm 2 m/s 757 mmHg 61%
    22:00 +31°C° 1.4 mm 2 m/s 757 mmHg 65%
    23:00 +30°C° 1.4 mm 3 m/s 757 mmHg 70%

    26 Aprilie, Vineri

    Timp Temperatura Precipitaţii Vânt Presiune Umiditate
    00:00 +29°C° 1.4 mm 3 m/s 757 mmHg 74%
    01:00 +29°C° 0.5 mm 3 m/s 756 mmHg 76%
    02:00 +28°C° 0.5 mm 3 m/s 756 mmHg 78%
    03:00 +28°C° 0.5 mm 4 m/s 756 mmHg 80%
    04:00 +28°C° 0 mm 4 m/s 756 mmHg 81%
    05:00 +27°C° 0 mm 4 m/s 756 mmHg 81%
    06:00 +27°C° 0 mm 4 m/s 757 mmHg 82%
    07:00 +28°C° 0 mm 4 m/s 757 mmHg 76%
    08:00 +29°C° 0 mm 5 m/s 757 mmHg 70%
    09:00 +32°C° 0 mm 5 m/s 758 mmHg 64%
    10:00 +33°C° 0 mm 5 m/s 757 mmHg 58%
    11:00 +35°C° 0 mm 4 m/s 757 mmHg 51%
    12:00 +37°C° 0 mm 4 m/s 756 mmHg 44%
    13:00 +37°C° 0 mm 4 m/s 756 mmHg 43%
    14:00 +38°C° 0 mm 4 m/s 755 mmHg 42%
    15:00 +38°C° 0 mm 4 m/s 754 mmHg 41%
    16:00 +36°C° 0 mm 4 m/s 755 mmHg 47%
    17:00 +35°C° 0 mm 4 m/s 755 mmHg 53%
    18:00 +34°C° 0 mm 4 m/s 756 mmHg 59%
    19:00 +32°C° 0.3 mm 4 m/s 756 mmHg 63%
    20:00 +30°C° 0.3 mm 4 m/s 757 mmHg 68%
    21:00 +29°C° 0.3 mm 5 m/s 758 mmHg 73%
    22:00 +29°C° 1.9 mm 5 m/s 758 mmHg 76%
    23:00 +28°C° 1.9 mm 4 m/s 758 mmHg 79%
    Arată mai mult